DECAYED

STARLINK-5225, 54063 (Decayed)

Orbit data source: Space-Track

STARLINK-5225, 54063 was a payload satellite owned by SpaceX/Seattle (US) in LEO that was launched on Thu, 20 Oct 2022 UTC via an FALCON 9 launch vehicle from the Air Force Eastern Test Range (AFETR). Payload-class satellites include a variety of spacecraft equipped with specific instruments for various scientific and technological missions. These include communications satellites like Starlink; space stations such as the ISS; scientific satellites like the Hubble; Earth observation satellites from companies like Planet Labs, Umbra, and HawkEye 360; GPS; miniature CubeSats for education and research; and military/defense satellites.

Not visible in the next 10 days
Identifier
54063, 2022-136N
Orbit
Decayed
Country
Flag of USUS
Related business
Manufacturer
SpaceX/Seattle
Mission
Decayed Commercial Communications
Bus & Motor
STARLINK, Unknown motor
Mass
305 kg wet, ~290 kg dry
Launch date (UTC)
2022-10-20 (4 years ago)
Launch vehicle
FALCON 9
Launch site
Air Force Eastern Test Range (AFETR)
Object type
Payload
Rocket body
Debris
Shape & HBR
Box + 1 Pan, 10.1 m
Radar Cross Section
13.562 m², Large (>1 m²)

Expand to show TLE details & history
Last TLE update: 4 months ago

TLE from 4 months ago
0 STARLINK-5225
1 54063U 22136N   26039.60660406  .12988183  12525-4  18899-3 0  9997
2 54063  53.2036  87.4170 0006135 236.7864 123.2601 16.48434657182832
Epoch: 2026-02-08T14:33Z
TLE epoch observation values (Epoch: 2026-02-08T14:33:30.590Z)
Latitude
-0°
Longitude
90.32618°
Altitude
146.607 km
Speed
7.818 km/s
True Right ascension
05h 49m 40s
True Declination
0° 00' 00"
Sunlit
Object was in full shadow at epoch
Visualization orbit readout
Latitude
Unknown
Longitude
Unknown
Altitude
Unknown
Speed
Unknown
Apparent Right ascension
Unknown
Apparent Declination
Unknown
Sunlit
N/A
Visualization observer readout
Local Sidereal Time
21:37:00
Azimuth
Unknown
Elevation
Unknown
Doppler factor
Unknown
Orbital elements
Apogee altitude
147.724 km
Perigee altitude
139.721 km
Semi-major axis
6,521.86 km
Eccentricity
0.00061
Inclination
53.2036°
RAAN
87.417°
Arg. of periapsis
236.7864°
True anomaly
123.31886°
Mean anomaly
123.2601°
Eccentric anomaly
123.28948°
Mean motion
4.12084 °/min
Orbital period
87.36 mins
BSTAR
0.00018899
Loading maneuver chart data...
Computing Atmospheric mass density...
Loading historical data...
Loading historical data...
Loading historical data...
Loading historical data...
Loading historical data...
Loading historical data...
Loading historical data...

Documentation

Showing up to 5 results
|